E25RIV-1 Weather Reports


Display with metric or nautical units.
time (UTC)temp
F
wind
direction
speed
MPH
gust
MPH
rain 1hr
in
rain 24hr
in
rain mn
in
humidity
%
barometer
mb
20260508095250 83 0 0.0 0.0 0.00 0.00 0.00 99 1002.0
20260508094226 83 0 0.0 0.0 0.00 0.00 0.00 99 1002.0
20260508093207 83 0 0.0 0.0 0.00 0.00 0.00 99 1002.0
20260508092138 83 0 0.0 0.0 0.00 0.00 0.00 99 1002.0
20260508091114 84 0 0.0 0.0 0.00 0.00 0.00 99 1001.0
20260508090050 84 0 0.0 0.0 0.00 0.00 0.00 99 1001.0
20260508085026 85 0 0.0 0.0 0.00 0.00 0.00 99 1001.0
20260508084002 85 0 0.0 0.0 0.00 0.00 0.00 99 1001.0
20260508082938 85 0 0.0 0.0 0.00 0.00 0.00 99 1001.0
20260508081914 85 0 0.0 0.0 0.00 0.00 0.00 99 1001.0
20260508080850 85 0 0.0 0.0 0.00 0.00 0.00 99 1001.0
20260508075826 84 0 0.0 0.0 0.00 0.00 0.00 99 1001.0
20260508074802 83 0 0.0 0.0 0.00 0.00 0.00 99 1001.0
20260508073738 84 0 0.0 0.0 0.00 0.00 0.00 88 1004.0
20260508072714 94 0 0.0 0.0 0.00 0.00 0.00 59 998.0
20260508071650 99 0 0.0 0.0 0.00 0.00 0.00 52 993.0
20260508070626 100 0 0.0 0.0 0.00 0.00 0.00 51 992.0
20260508065602 100 0 0.0 0.0 0.00 0.00 0.00 49 992.0
20260508064538 99 0 0.0 0.0 0.00 0.00 0.00 50 992.0
20260508063514 99 0 0.0 0.0 0.00 0.00 0.00 51 993.0
20260508062450 99 0 0.0 0.0 0.00 0.00 0.00 51 993.0
20260508061426 97 0 0.0 0.0 0.00 0.00 0.00 55 996.0
20260508060402 99 0 0.0 0.0 0.00 0.00 0.00 52 994.0
20260508055338 99 0 0.0 0.0 0.00 0.00 0.00 52 994.0
20260508054314 99 0 0.0 0.0 0.00 0.00 0.00 53 994.0
20260508053250 99 0 0.0 0.0 0.00 0.00 0.00 53 995.0
20260508052226 98 0 0.0 0.0 0.00 0.00 0.00 54 995.0
20260508051202 98 0 0.0 0.0 0.00 0.00 0.00 57 997.0
20260508050138 96 0 0.0 0.0 0.00 0.00 0.00 58 998.0
20260508045114 97 0 0.0 0.0 0.00 0.00 0.00 58 998.0
20260508044050 95 0 0.0 0.0 0.00 0.00 0.00 59 999.0
20260508043026 94 0 0.0 0.0 0.00 0.00 0.00 65 1002.0
20260508042002 95 0 0.0 0.0 0.00 0.00 0.00 61 999.0
20260508040938 95 0 0.0 0.0 0.00 0.00 0.00 64 1001.0
20260508035914 95 0 0.0 0.0 0.00 0.00 0.00 63 1000.0
20260508034850 94 0 0.0 0.0 0.00 0.00 0.00 65 1001.0
20260508033826 93 0 0.0 0.0 0.00 0.00 0.00 66 1001.0
20260508032801 94 0 0.0 0.0 0.00 0.00 0.00 67 1001.0
20260508031737 94 0 0.0 0.0 0.00 0.00 0.00 72 1002.0
20260508030713 92 0 0.0 0.0 0.00 0.00 0.00 74 1002.0
20260508025649 92 0 0.0 0.0 0.00 0.00 0.00 80 1004.0
20260508024626 92 0 0.0 0.0 0.00 0.00 0.00 74 1002.0
20260508023601 91 0 0.0 0.0 0.00 0.00 0.00 89 1004.0
20260508022537 91 0 0.0 0.0 0.00 0.00 0.00 93 1005.0
20260508021513 91 0 0.0 0.0 0.00 0.00 0.00 96 1005.0
20260508020450 90 0 0.0 0.0 0.00 0.00 0.00 99 1006.0
20260508015426 90 0 0.0 0.0 0.00 0.00 0.00 99 1005.0
20260508014402 89 0 0.0 0.0 0.00 0.00 0.00 99 1005.0
20260508013337 88 0 0.0 0.0 0.00 0.00 0.00 99 1005.0
20260508012313 87 0 0.0 0.0 0.00 0.00 0.00 99 1005.0
20260508011249 86 0 0.0 0.0 0.00 0.00 0.00 99 1005.0
20260508010225 86 0 0.0 0.0 0.00 0.00 0.00 99 1005.0
20260508005201 85 0 0.0 0.0 0.00 0.00 0.00 99 1005.0
20260508004137 85 0 0.0 0.0 0.00 0.00 0.00 99 1005.0
20260508003112 85 0 0.0 0.0 0.00 0.00 0.00 99 1005.0
20260508002048 85 0 0.0 0.0 0.00 0.00 0.00 99 1005.0
20260508001024 86 0 0.0 0.0 0.00 0.00 0.00 99 1004.0
20260508000000 84 0 0.0 0.0 0.00 0.00 0.00 99 1004.0
20260507234936 81 0 0.0 0.0 0.00 0.00 0.00 99 1004.0
20260507233912 81 0 0.0 0.0 0.00 0.00 0.00 99 1004.0
20260507232848 80 0 0.0 0.0 0.00 0.00 0.00 99 1004.0
20260507231825 80 0 0.0 0.0 0.00 0.00 0.00 99 1004.0
20260507230800 80 0 0.0 0.0 0.00 0.00 0.00 99 1004.0
20260507225736 80 0 0.0 0.0 0.00 0.00 0.00 99 1004.0
20260507224712 80 0 0.0 0.0 0.00 0.00 0.00 99 1004.0
20260507223648 80 0 0.0 0.0 0.00 0.00 0.00 99 1004.0
20260507222624 80 0 0.0 0.0 0.00 0.00 0.00 99 1004.0
20260507221600 80 0 0.0 0.0 0.00 0.00 0.00 99 1003.0
20260507220536 80 0 0.0 0.0 0.00 0.00 0.00 99 1003.0
20260507215512 80 0 0.0 0.0 0.00 0.00 0.00 99 1003.0
20260507214448 80 0 0.0 0.0 0.00 0.00 0.00 99 1003.0
20260507213424 80 0 0.0 0.0 0.00 0.00 0.00 99 1003.0
20260507212359 80 0 0.0 0.0 0.00 0.00 0.00 99 1003.0
20260507211336 80 0 0.0 0.0 0.00 0.00 0.00 99 1003.0
20260507210312 80 0 0.0 0.0 0.00 0.00 0.00 99 1003.0
20260507205248 80 0 0.0 0.0 0.00 0.00 0.00 99 1003.0
20260507204224 80 0 0.0 0.0 0.00 0.00 0.00 99 1003.0
20260507203200 80 0 0.0 0.0 0.00 0.00 0.00 99 1003.0
20260507202136 80 0 0.0 0.0 0.00 0.00 0.00 99 1003.0
20260507201112 80 0 0.0 0.0 0.00 0.00 0.00 99 1003.0
20260507200048 80 0 0.0 0.0 0.00 0.00 0.00 99 1003.0
20260507195024 80 0 0.0 0.0 0.00 0.00 0.00 99 1003.0
20260507193959 80 0 0.0 0.0 0.00 0.00 0.00 99 1003.0
20260507192935 80 0 0.0 0.0 0.00 0.00 0.00 99 1004.0
20260507191912 80 0 0.0 0.0 0.00 0.00 0.00 99 1004.0
20260507190847 80 0 0.0 0.0 0.00 0.00 0.00 99 1004.0
20260507185823 80 0 0.0 0.0 0.00 0.00 0.00 99 1004.0
20260507184759 80 0 0.0 0.0 0.00 0.00 0.00 99 1004.0
20260507183735 80 0 0.0 0.0 0.00 0.00 0.00 99 1004.0
20260507182712 79 0 0.0 0.0 0.00 0.00 0.00 99 1004.0
20260507181647 80 0 0.0 0.0 0.00 0.00 0.00 99 1004.0
20260507180623 80 0 0.0 0.0 0.00 0.00 0.00 99 1004.0
20260507175559 80 0 0.0 0.0 0.00 0.00 0.00 99 1004.0
20260507174536 80 0 0.0 0.0 0.00 0.00 0.00 99 1004.0
20260507173511 80 0 0.0 0.0 0.00 0.00 0.00 99 1004.0
20260507172447 80 0 0.0 0.0 0.00 0.00 0.00 99 1004.0
20260507171423 80 0 0.0 0.0 0.00 0.00 0.00 99 1004.0
20260507170400 80 0 0.0 0.0 0.00 0.00 0.00 99 1004.0
20260507165336 80 0 0.0 0.0 0.00 0.00 0.00 99 1005.0
20260507164312 80 0 0.0 0.0 0.00 0.00 0.00 99 1005.0
20260507163248 80 0 0.0 0.0 0.00 0.00 0.00 99 1005.0
20260507162224 81 0 0.0 0.0 0.00 0.00 0.00 99 1005.0
20260507161200 81 0 0.0 0.0 0.00 0.00 0.00 99 1005.0
20260507160136 80 0 0.0 0.0 0.00 0.00 0.00 99 1005.0
20260507155112 80 0 0.0 0.0 0.00 0.00 0.00 99 1005.0
20260507154048 80 0 0.0 0.0 0.00 0.00 0.00 99 1005.0
20260507153024 80 0 0.0 0.0 0.00 0.00 0.00 99 1005.0
20260507152000 80 0 0.0 0.0 0.00 0.00 0.00 99 1005.0
20260507150936 80 0 0.0 0.0 0.00 0.00 0.00 99 1005.0
20260507145912 80 0 0.0 0.0 0.00 0.00 0.00 99 1005.0
20260507144848 80 0 0.0 0.0 0.00 0.00 0.00 99 1005.0
20260507143824 80 0 0.0 0.0 0.00 0.00 0.00 99 1005.0
20260507142800 80 0 0.0 0.0 0.00 0.00 0.00 99 1005.0
20260507141736 80 0 0.0 0.0 0.00 0.00 0.00 99 1005.0
20260507140714 80 0 0.0 0.0 0.00 0.00 0.00 99 1005.0
20260507135648 80 0 0.0 0.0 0.00 0.00 0.00 99 1005.0
20260507134625 80 0 0.0 0.0 0.00 0.00 0.00 99 1004.0
20260507133600 80 0 0.0 0.0 0.00 0.00 0.00 99 1004.0
20260507132536 80 0 0.0 0.0 0.00 0.00 0.00 99 1004.0
20260507131512 79 0 0.0 0.0 0.00 0.00 0.00 99 1004.0
20260507130448 80 0 0.0 0.0 0.00 0.00 0.00 99 1004.0
20260507125424 80 0 0.0 0.0 0.00 0.00 0.00 99 1004.0
20260507124359 80 0 0.0 0.0 0.00 0.00 0.00 99 1004.0
20260507123335 80 0 0.0 0.0 0.00 0.00 0.00 99 1003.0
20260507122310 80 0 0.0 0.0 0.00 0.00 0.00 99 1003.0
20260507121246 80 0 0.0 0.0 0.00 0.00 0.00 99 1003.0
20260507120221 80 0 0.0 0.0 0.00 0.00 0.00 99 1002.0
20260507115158 80 0 0.0 0.0 0.00 0.00 0.00 99 1003.0
20260507114132 80 0 0.0 0.0 0.00 0.00 0.00 99 1002.0
20260507113108 80 0 0.0 0.0 0.00 0.00 0.00 99 1002.0
20260507112044 80 0 0.0 0.0 0.00 0.00 0.00 99 1002.0
20260507111020 80 0 0.0 0.0 0.00 0.00 0.00 99 1002.0
20260507105955 80 0 0.0 0.0 0.00 0.00 0.00 99 1002.0
20260507104930 80 0 0.0 0.0 0.00 0.00 0.00 99 1002.0
20260507103906 80 0 0.0 0.0 0.00 0.00 0.00 99 1002.0
20260507102841 80 0 0.0 0.0 0.00 0.00 0.00 99 1002.0
20260507101816 80 0 0.0 0.0 0.00 0.00 0.00 99 1002.0
20260507100817 80 0 0.0 0.0 0.00 0.00 0.00 99 1002.0